{"data":{"norad_id":69013,"intl_designator":"2026-100AK","name":"CAS500-2","alt_names":[],"object_type":"PAYLOAD","status":"ACTIVE","operator":null,"country":"SKOR","launch_date":"2026-05-03","launch_site_code":"AFWTR","launch_vehicle":null,"mission":null,"orbit_class":"UNKNOWN","rcs_meters":null,"size_class":null,"mass_kg":null,"dimensions":null,"purposes":["earth_obs"],"wikipedia_slug":null,"has_3d_model":false,"image_url":null,"decayed_at":null,"tle_current":{"epoch":"2026-09-20T04:28:22.560672Z","epoch_age_seconds":45333,"freshness":"FRESH","line1":"1 69013U 26100AK  26263.18637223  .00003893  00000+0  18213-3 0  9999","line2":"2 69013  97.3749 159.0904 0010861  50.8419 309.3780 15.20290474 21244","mean_motion":15.20290474,"eccentricity":0.0010861,"inclination_deg":97.3749,"raan_deg":159.0904,"arg_perigee_deg":50.8419,"mean_anomaly_deg":309.378,"bstar":0.00018213,"rev_number":2124,"period_min":94.718741229184,"perigee_km":497.48799289755,"apogee_km":512.43946430021,"semimajor_km":6883.1007285989,"source":"CELESTRAK","updated_at":"2026-09-20T09:00:34.134127Z"}}}